User: anonymous   Login
Location: Fort Wayne
(41.1310°N, 85.1290°W)
Time: 03:32:28
(UTC-05:00)
Language:

CZ-2C R/B - Orbit

View from above orbital plane
View from above orbital plane
View from above satellite
View from above satellite

Ground track
Ground track

The orbit data is extracted from the following two-line orbital elements,

1 36089U 09061B   16341.54029029  .00000114  00000-0  40042-4 0  9998
2 36089  98.0500 345.9377 0080809 279.2024 240.3884 14.49623581373802
Epoch (UTC): 06 December 2016 12:58:01
Eccentricity: 0.0080809
inclination: 98.0500°
perigee height: 669 km
apogee height: 784 km
right ascension of ascending node: 345.9377°
argument of perigee: 279.2024°
revolutions per day: 14.49623581
mean anomaly at epoch: 240.3884°
orbit number at epoch: 37380

The dashed part of the orbit path shows where the satellite is in the earth's shadow,  

DLR